This is the latest recevied weather packets stored in our database for station/object DM1RG-6. If no packets are shown the sender has not sent any weather packets the latest 10 day(s).
| Time | Temp. | Humidity | Pressure | Rain* | Wind** | Luminosity | Snow |
|---|---|---|---|---|---|---|---|
| 1777834444 | 21.11° C | 51% | 1009.6 hPa | 0 mm | - | - | - |
| 1777834084 | 21.11° C | 49% | 1009.2 hPa | 0 mm | - | - | - |
| 1777833724 | 21.67° C | 47% | 1009.1 hPa | 0 mm | - | - | - |
| 1777833364 | 22.22° C | 46% | 1009.3 hPa | 0 mm | - | - | - |
| 1777833004 | 22.78° C | 46% | 1009 hPa | 0 mm | - | - | - |
| 1777831923 | 23.33° C | 43% | 1008.9 hPa | 0 mm | - | - | - |
| 1777831564 | 23.89° C | 42% | 1009.1 hPa | 0 mm | - | - | - |
| 1777829044 | 26.67° C | 34% | 1008.9 hPa | 0 mm | - | - | - |
| 1777826884 | 27.78° C | 33% | 1008.9 hPa | 0 mm | - | - | - |
| 1777824364 | 28.33° C | 32% | 1009.3 hPa | 0 mm | - | - | - |
| 1777823284 | 28.33° C | 32% | 1009.3 hPa | 0 mm | - | - | - |
| 1777822563 | 27.78° C | 33% | 1009.3 hPa | 0 mm | - | - | - |
| 1777819324 | 28.89° C | 29% | 1010 hPa | 0 mm | - | - | - |
| 1777818964 | 29.44° C | 28% | 1009.8 hPa | 0 mm | - | - | - |
| 1777816084 | 28.89° C | 27% | 1010.3 hPa | 0 mm | - | - | - |
| 1777815364 | 28.33° C | 26% | 1010.6 hPa | 0 mm | - | - | - |
| 1777814284 | 28.89° C | 26% | 1011 hPa | 0 mm | - | - | - |
| 1777813924 | 28.33° C | 26% | 1011 hPa | 0 mm | - | - | - |
| 1777811764 | 28.89° C | 27% | 1011.2 hPa | 0 mm | - | - | - |
| 1777810324 | 28.89° C | 26% | 1011.2 hPa | 0 mm | - | - | - |
| 1777806723 | 27.78° C | 35% | 1011.9 hPa | 0 mm | - | - | - |
| 1777803484 | 27.22° C | 37% | 1012.5 hPa | 0 mm | - | - | - |
| 1777803123 | 26.67° C | 38% | 1012.4 hPa | 0 mm | - | - | - |
| 1777802764 | 26.11° C | 38% | 1012.5 hPa | 0 mm | - | - | - |
| 1777800963 | 26.11° C | 38% | 1012.7 hPa | 0 mm | - | - | - |
* Rain latest hour (hover to see other rain measurements)
** Current wind speed in m/s (hover to see current wind gust speed)